Powrót do katalogu

STARLINK-5572

AktywnyŁącznośćVLEO
NORAD 55378·PAYLOAD·🇺🇸 United States

Wystrzelony Jan 26, 2023 z Cape Canaveral Space Force Station

Loading…

Następne Przeloty (najbliższe 24 godziny)

TLE

ŚwieżeSource: CelesTrak SupGP

Epoka: Sep 15, 2026, 02:57 UTC

1 55378C 23013AZ  26258.12340278  .00024165  00000+0  87521-3 0  2588
2 55378  43.0008 331.3602 0001524 261.0484 282.3503 15.27568727    14

Śledź STARLINK-5572 w czasie rzeczywistym z AllMySat

Download on the App Store